FW2255 Weather Reports


time (UTC)temp
C
wind
direction
speed
KPH
gust
KPH
rain 1hr
cm
rain 24hr
cm
rain mn
cm
humidity
%
barometer
mb
20260507121055 12 0 0.0 1.6 0.00 1.83 1.45 65 1012.8
20260507120553 12 0 0.0 3.2 0.00 1.83 1.45 66 1012.7
20260507120055 12 0 0.0 3.2 0.00 1.83 1.45 66 1013.0
20260507115555 12 204 0.0 3.2 0.00 1.83 1.45 67 1013.1
20260507115057 12 0 0.0 3.2 0.00 1.83 1.45 68 1013.1
20260507114609 12 0 0.0 0.0 0.00 1.83 1.45 69 1012.9
20260507114054 12 0 0.0 1.6 0.00 1.83 1.45 69 1013.0
20260507113557 12 0 0.0 1.6 0.00 1.83 1.45 69 1012.7
20260507113128 12 0 0.0 1.6 0.00 1.83 1.45 71 1012.6
20260507112554 12 0 0.0 0.0 0.00 1.83 1.45 72 1012.8
20260507112055 12 0 0.0 0.0 0.00 1.83 1.45 72 1012.7
20260507111558 12 0 0.0 0.0 0.00 1.83 1.45 72 1012.7
20260507111055 12 0 0.0 0.0 0.00 1.83 1.45 72 1012.8
20260507110554 12 0 0.0 0.0 0.00 1.83 1.45 72 1012.7
20260507110056 12 0 0.0 0.0 0.00 1.83 1.45 72 1012.7
20260507105553 12 0 0.0 0.0 0.00 1.83 1.45 72 1012.7
20260507105054 12 0 0.0 0.0 0.00 1.83 1.45 73 1012.7
20260507104556 12 0 0.0 0.0 0.00 1.83 1.45 73 1012.6
20260507104055 12 0 0.0 0.0 0.00 1.83 1.45 72 1012.6
20260507103556 12 0 0.0 1.6 0.00 1.83 1.45 72 1012.5
20260507103059 12 0 0.0 1.6 0.00 1.83 1.45 72 1012.5
20260507102554 12 0 0.0 1.6 0.00 1.83 1.45 72 1012.3
20260507102055 12 0 0.0 0.0 0.00 1.83 1.45 72 1012.3
20260507101559 12 0 0.0 0.0 0.00 1.83 1.45 73 1012.2
20260507101055 12 0 0.0 0.0 0.00 1.83 1.45 73 1012.2
20260507100556 12 0 0.0 0.0 0.00 1.83 1.45 73 1012.3
20260507100121 12 0 0.0 0.0 0.00 1.83 1.45 73 1012.2
20260507095554 12 0 0.0 1.6 0.00 1.83 1.45 73 1012.2
20260507095055 12 0 0.0 1.6 0.00 1.83 1.45 73 1012.2
20260507094602 12 0 0.0 0.0 0.00 1.83 1.45 73 1012.3
20260507094054 12 0 0.0 0.0 0.00 1.83 1.45 73 1012.3
20260507093555 12 0 0.0 0.0 0.00 1.83 1.45 73 1012.2
20260507093055 12 0 0.0 0.0 0.00 1.83 1.45 73 1012.0
20260507092554 12 0 0.0 0.0 0.00 1.83 1.45 73 1012.0
20260507092053 12 0 0.0 1.6 0.00 1.83 1.45 73 1011.9
20260507091632 12 0 0.0 1.6 0.00 1.83 1.45 73 1011.9
20260507091054 12 0 0.0 1.6 0.00 1.83 1.45 73 1011.7
20260507090555 12 0 0.0 0.0 0.00 1.83 1.45 73 1012.1
20260507090058 12 0 0.0 3.2 0.00 1.83 1.45 73 1011.9
20260507085554 12 0 0.0 3.2 0.00 1.83 1.45 73 1011.8
20260507085055 12 0 0.0 3.2 0.00 1.83 1.45 73 1011.8
20260507084604 12 0 0.0 0.0 0.00 1.83 1.45 73 1011.9
20260507084054 12 0 0.0 0.0 0.00 1.83 1.45 72 1011.9
20260507083555 12 0 0.0 0.0 0.00 1.83 1.45 72 1011.8
20260507083056 12 0 0.0 3.2 0.00 1.83 1.45 72 1012.1
20260507082554 12 0 0.0 3.2 0.00 1.83 1.45 72 1011.8
20260507082054 12 0 0.0 1.6 0.00 1.83 1.45 73 1011.7
20260507081600 12 0 0.0 3.2 0.00 1.83 1.45 73 1012.0
20260507081054 12 0 0.0 3.2 0.00 1.83 1.45 73 1011.7
20260507080554 12 0 0.0 3.2 0.00 1.83 1.45 74 1011.4
20260507080056 12 0 0.0 3.2 0.00 1.83 1.45 74 1011.3
20260507075554 12 9 0.0 3.2 0.00 1.83 1.45 74 1011.2
20260507075054 12 0 0.0 3.2 0.00 1.83 1.45 74 1011.2
20260507074559 12 0 0.0 1.6 0.00 1.83 1.45 74 1011.3
20260507074056 12 0 0.0 3.2 0.00 1.83 1.45 74 1011.4
20260507073553 12 0 0.0 3.2 0.00 1.83 1.45 74 1011.3
20260507073057 12 0 0.0 1.6 0.00 1.83 1.45 74 1010.9
20260507072554 12 0 0.0 1.6 0.00 1.83 1.45 74 1010.9
20260507072053 12 0 0.0 1.6 0.00 1.83 1.45 74 1011.1
20260507071556 12 0 0.0 0.0 0.00 1.83 1.45 74 1011.2
20260507071055 13 0 0.0 1.6 0.00 1.83 1.45 74 1011.1
20260507070554 13 0 0.0 3.2 0.00 1.83 1.45 74 1011.0
20260507070057 13 0 0.0 6.4 0.00 1.83 1.45 74 1011.0
20260507065556 13 10 0.0 6.4 0.00 1.83 1.45 74 1011.0
20260507065054 13 0 0.0 4.8 0.00 1.83 1.45 74 1010.9
20260507064554 13 0 0.0 4.8 0.03 1.83 1.45 75 1010.9
20260507064054 13 0 0.0 4.8 0.03 1.83 1.45 75 1011.1
20260507063553 13 352 1.6 11.3 0.03 1.83 1.45 76 1010.7
20260507063055 13 317 1.6 11.3 0.05 1.83 1.45 77 1010.8
20260507062554 13 305 1.6 11.3 0.05 1.83 1.45 78 1011.0
20260507062054 13 0 1.6 9.7 0.08 1.83 1.45 79 1010.9
20260507061553 13 296 3.2 9.7 0.08 1.83 1.45 79 1010.7
20260507061056 13 333 0.0 4.8 0.08 1.83 1.45 80 1010.9
20260507060557 13 0 0.0 4.8 0.08 1.83 1.45 79 1010.9
20260507060059 13 320 0.0 3.2 0.10 1.83 1.45 80 1010.6
20260507055554 14 0 0.0 3.2 0.10 1.83 1.45 80 1010.2
20260507055054 14 0 0.0 3.2 0.13 1.83 1.45 79 1009.8
20260507054554 14 320 0.0 3.2 0.10 1.80 1.42 79 1010.3
20260507054056 14 0 0.0 1.6 0.18 1.80 1.42 79 1010.7
20260507053637 14 0 0.0 0.0 0.61 1.80 1.42 79 1010.5
20260507053055 14 0 0.0 0.0 0.81 1.78 1.40 78 1010.9
20260507052559 14 0 0.0 0.0 1.22 1.78 1.40 77 1010.7
20260507052056 14 0 0.0 0.0 1.32 1.75 1.37 75 1010.8
20260507051558 14 0 0.0 1.6 1.32 1.75 1.37 73 1011.0
20260507051057 14 0 0.0 1.6 1.37 1.75 1.37 72 1011.3
20260507050553 14 0 0.0 1.6 1.37 1.75 1.37 71 1011.3
20260507050057 14 0 0.0 1.6 1.32 1.73 1.32 69 1010.8
20260507045556 14 0 0.0 3.2 1.32 1.73 1.32 69 1010.5
20260507045056 14 0 0.0 9.7 1.32 1.70 1.32 68 1010.8
20260507044616 15 0 0.0 9.7 1.32 1.70 1.32 67 1011.1
20260507044055 15 320 1.6 9.7 1.24 1.63 1.24 66 1011.2
20260507043555 15 326 0.0 6.4 0.81 1.19 0.81 65 1011.7
20260507043109 16 17 3.2 6.4 0.58 0.97 0.58 63 1011.0
20260507042556 16 316 0.0 8.0 0.18 0.56 0.18 61 1011.1
20260507042055 17 330 1.6 8.0 0.05 0.43 0.05 59 1010.7
20260507041558 17 0 1.6 11.3 0.03 0.41 0.03 58 1010.6
20260507041055 17 311 1.6 14.5 0.00 0.38 0.00 55 1010.6
20260507040556 17 5 4.8 14.5 0.00 0.38 0.00 54 1010.7
20260507040059 18 333 1.6 11.3 0.00 0.38 0.00 54 1010.7
20260507035555 18 15 1.6 12.9 0.00 0.38 0.38 55 1010.5
20260507035055 18 311 1.6 12.9 0.00 0.38 0.38 56 1010.3
20260507034557 18 19 3.2 12.9 0.00 0.38 0.38 56 1010.2
20260507034055 18 346 4.8 12.9 0.00 0.38 0.38 57 1010.3
20260507033555 19 290 1.6 8.0 0.00 0.38 0.38 58 1010.4
20260507033102 19 315 1.6 8.0 0.00 0.38 0.38 59 1010.3
20260507032559 19 11 1.6 6.4 0.00 0.38 0.38 59 1010.1
20260507032055 19 40 0.0 4.8 0.00 0.38 0.38 59 1010.2
20260507031556 19 0 0.0 4.8 0.00 0.38 0.38 59 1010.2
20260507031058 19 0 0.0 4.8 0.00 0.38 0.38 59 1009.9
20260507030555 19 0 0.0 4.8 0.00 0.38 0.38 59 1009.6
20260507030059 19 21 0.0 6.4 0.00 0.38 0.38 59 1009.7
20260507025555 19 0 1.6 6.4 0.00 0.38 0.38 60 1009.6
20260507025059 19 21 1.6 6.4 0.00 0.38 0.38 61 1009.8
20260507024558 19 352 1.6 6.4 0.00 0.38 0.38 62 1009.9
20260507024056 19 0 0.0 3.2 0.00 0.38 0.38 64 1009.8
20260507023555 19 0 0.0 3.2 0.00 0.38 0.38 64 1009.7
20260507023108 19 129 0.0 0.0 0.00 0.38 0.38 65 1009.5
20260507022555 19 0 0.0 0.0 0.00 0.38 0.38 66 1009.5
20260507022056 18 0 0.0 0.0 0.00 0.38 0.38 66 1009.5
20260507021555 18 0 0.0 0.0 0.00 0.38 0.38 66 1009.1
20260507021055 18 0 0.0 0.0 0.00 0.38 0.38 66 1009.0
20260507020555 18 0 0.0 0.0 0.00 0.38 0.38 66 1009.1
20260507020105 19 0 0.0 0.0 0.00 0.38 0.38 66 1009.0
20260507015555 19 0 0.0 0.0 0.00 0.38 0.38 65 1009.3
20260507015055 19 0 0.0 0.0 0.00 0.38 0.38 65 1009.5
20260507014557 19 0 0.0 0.0 0.00 0.38 0.38 64 1009.4
20260507014056 19 0 0.0 0.0 0.00 0.38 0.38 64 1009.5
20260507013556 19 0 0.0 0.0 0.00 0.38 0.38 64 1009.5
20260507013058 19 0 0.0 0.0 0.00 0.38 0.38 63 1009.6
20260507012555 19 0 0.0 0.0 0.00 0.38 0.38 63 1009.5
20260507012055 20 0 0.0 0.0 0.00 0.38 0.38 62 1009.7
20260507011558 20 0 0.0 0.0 0.00 0.38 0.38 62 1009.5
20260507011055 20 0 0.0 0.0 0.00 0.38 0.38 62 1009.6
20260507010555 20 0 0.0 0.0 0.00 0.38 0.38 62 1009.7
20260507010057 20 0 0.0 0.0 0.00 0.38 0.38 62 1009.9
20260507005556 20 0 0.0 0.0 0.00 0.38 0.38 62 1009.9
20260507005057 19 0 0.0 0.0 0.00 0.38 0.38 63 1009.7
20260507004556 19 0 0.0 0.0 0.00 0.38 0.38 63 1009.4
20260507004055 19 0 0.0 0.0 0.00 0.38 0.38 63 1009.4
20260507003556 19 0 0.0 0.0 0.00 0.38 0.38 64 1009.2
20260507003114 20 0 0.0 0.0 0.00 0.38 0.38 63 1009.4
20260507002555 20 0 0.0 0.0 0.00 0.38 0.38 63 1009.2
20260507002055 20 0 0.0 0.0 0.00 0.38 0.38 63 1009.1
20260507001616 20 0 0.0 0.0 0.00 0.38 0.38 63 1009.4
20260507001054 20 0 0.0 0.0 0.00 0.38 0.38 62 1009.4
20260507000557 20 0 0.0 0.0 0.00 0.38 0.38 62 1009.2
20260507000057 20 0 0.0 0.0 0.00 0.38 0.38 62 1008.7
20260506235556 20 0 0.0 0.0 0.00 0.38 0.38 62 1008.8
20260506235057 20 0 0.0 0.0 0.00 0.38 0.38 62 1008.9
20260506234557 20 0 0.0 0.0 0.00 0.38 0.38 62 1008.6
20260506234058 20 0 0.0 1.6 0.00 0.38 0.38 62 1008.4
20260506233557 20 0 0.0 1.6 0.00 0.38 0.38 62 1008.2
20260506233055 20 0 0.0 1.6 0.00 0.38 0.38 62 1008.2
20260506232556 20 0 0.0 0.0 0.00 0.38 0.38 62 1008.3
20260506232052 20 0 0.0 0.0 0.00 0.38 0.38 62 1008.3
20260506231604 20 0 0.0 0.0 0.00 0.38 0.38 62 1008.3
20260506231055 20 0 0.0 0.0 0.00 0.38 0.38 62 1008.4
20260506230554 20 0 0.0 0.0 0.00 0.38 0.38 61 1008.4
20260506230109 20 0 0.0 0.0 0.00 0.38 0.38 61 1008.3
20260506225557 20 0 0.0 0.0 0.00 0.38 0.38 61 1008.3
20260506225055 20 0 0.0 0.0 0.00 0.38 0.38 61 1008.3
20260506224556 21 0 0.0 0.0 0.00 0.38 0.38 61 1008.3
20260506224057 20 0 0.0 0.0 0.00 0.38 0.38 61 1008.3
20260506223558 20 0 0.0 0.0 0.00 0.38 0.38 60 1008.3
20260506223103 20 0 0.0 0.0 0.00 0.38 0.38 61 1008.2
20260506222557 20 0 0.0 0.0 0.00 0.38 0.38 60 1008.4
20260506222059 20 0 0.0 0.0 0.00 0.38 0.38 61 1008.2
20260506221607 20 0 0.0 0.0 0.00 0.38 0.38 61 1008.3
20260506221055 20 0 0.0 0.0 0.00 0.38 0.38 61 1008.3
20260506220555 20 0 0.0 0.0 0.00 0.38 0.38 60 1008.3
20260506220056 20 0 0.0 0.0 0.00 0.38 0.38 61 1008.4
20260506215559 20 0 0.0 1.6 0.00 0.38 0.38 61 1008.5
20260506215058 20 0 0.0 6.4 0.00 0.38 0.38 60 1008.4
20260506214556 20 165 0.0 6.4 0.00 0.38 0.38 60 1008.5
20260506214055 20 165 1.6 6.4 0.00 0.38 0.38 60 1008.5
20260506213554 20 165 1.6 6.4 0.00 0.38 0.38 60 1008.5
20260506213102 20 165 1.6 6.4 0.00 0.38 0.38 60 1008.4
20260506212555 20 165 1.6 8.0 0.00 0.38 0.38 60 1008.4
20260506212058 20 165 1.6 8.0 0.00 0.38 0.38 60 1008.3
20260506211556 20 165 3.2 6.4 0.00 0.38 0.38 60 1008.2
20260506211055 20 159 1.6 6.4 0.00 0.38 0.38 61 1008.3
20260506210555 20 159 1.6 6.4 0.00 0.38 0.38 60 1008.2
20260506210059 20 159 1.6 6.4 0.00 0.38 0.38 61 1008.1
20260506205558 20 160 1.6 6.4 0.00 0.38 0.38 60 1008.4
20260506205055 20 160 1.6 6.4 0.00 0.38 0.38 61 1008.2
20260506204601 20 160 1.6 8.0 0.00 0.38 0.38 62 1008.2
20260506204056 20 160 3.2 8.0 0.00 0.38 0.38 61 1008.1
20260506203555 20 160 3.2 8.0 0.00 0.38 0.38 61 1008.0
20260506203122 20 0 1.6 8.0 0.00 0.38 0.38 61 1008.2
20260506202555 20 160 1.6 6.4 0.00 0.38 0.38 62 1008.1
20260506202055 20 160 1.6 6.4 0.00 0.38 0.38 62 1008.1
20260506201558 20 160 3.2 6.4 0.00 0.38 0.38 61 1008.1
20260506201057 19 157 1.6 8.0 0.00 0.38 0.38 62 1008.2
20260506200601 19 161 3.2 8.0 0.00 0.38 0.38 61 1008.1
20260506200059 19 154 1.6 8.0 0.00 0.38 0.38 62 1008.1
20260506195555 19 154 1.6 8.0 0.00 0.38 0.38 62 1008.2
20260506195055 19 154 3.2 8.0 0.00 0.38 0.38 63 1008.2
20260506194600 19 153 3.2 8.0 0.00 0.38 0.38 63 1008.5
20260506194055 19 154 3.2 8.0 0.00 0.38 0.38 62 1008.6
20260506193554 18 155 1.6 6.4 0.00 0.38 0.38 63 1008.4
20260506193104 18 155 1.6 4.8 0.00 0.38 0.38 63 1008.7
20260506192556 18 0 1.6 8.0 0.00 0.38 0.38 62 1008.7
20260506192056 18 155 3.2 8.0 0.00 0.38 0.38 62 1008.9
20260506191554 18 150 1.6 8.0 0.00 0.38 0.38 62 1009.0
20260506191057 18 164 1.6 8.0 0.00 0.38 0.38 62 1008.9
20260506190556 18 165 1.6 6.4 0.00 0.38 0.38 63 1009.3
20260506190055 18 165 1.6 8.0 0.00 0.38 0.38 62 1009.3
20260506185555 18 163 3.2 8.0 0.00 0.38 0.38 62 1009.3
20260506185055 18 155 1.6 4.8 0.00 0.38 0.38 63 1009.4
20260506184554 18 146 1.6 6.4 0.00 0.38 0.38 63 1009.3
20260506184055 18 51 1.6 6.4 0.00 0.38 0.38 63 1009.3
20260506183558 18 164 1.6 6.4 0.00 0.38 0.38 63 1009.4
20260506183104 18 0 1.6 6.4 0.00 0.38 0.38 63 1009.4
20260506182554 18 0 1.6 8.0 0.00 0.38 0.38 63 1009.3
20260506182054 18 0 1.6 8.0 0.00 0.38 0.38 63 1009.3
20260506181558 18 155 1.6 8.0 0.00 0.38 0.38 64 1009.2
20260506181055 18 155 1.6 8.0 0.00 0.38 0.38 64 1009.4
20260506180555 18 157 1.6 8.0 0.00 0.38 0.38 64 1009.4
20260506180057 18 157 3.2 8.0 0.00 0.38 0.38 64 1009.7
20260506175554 18 165 1.6 9.7 0.00 0.38 0.38 65 1009.5
20260506175057 18 169 3.2 9.7 0.00 0.38 0.38 64 1009.5
20260506174556 18 161 4.8 9.7 0.00 0.38 0.38 64 1009.6
20260506174055 18 171 3.2 8.0 0.00 0.38 0.38 65 1009.6
20260506173555 17 168 3.2 9.7 0.00 0.38 0.38 65 1009.8
20260506173100 17 164 3.2 9.7 0.00 0.38 0.38 66 1009.7
20260506172555 17 216 3.2 9.7 0.00 0.38 0.38 66 1009.7
20260506172056 17 164 3.2 9.7 0.00 0.38 0.38 65 1009.7
20260506171556 17 157 3.2 9.7 0.00 0.38 0.38 66 1009.8
20260506171055 17 161 4.8 8.0 0.00 0.38 0.38 66 1009.8
20260506170555 17 215 3.2 8.0 0.00 0.38 0.38 68 1009.8
20260506170108 17 158 3.2 9.7 0.00 0.38 0.38 68 1009.8
20260506165555 17 165 3.2 9.7 0.00 0.38 0.38 70 1010.0
20260506165055 17 172 3.2 8.0 0.00 0.38 0.38 72 1009.9
20260506164626 17 170 3.2 8.0 0.00 0.38 0.38 75 1009.9
20260506164054 17 158 3.2 8.0 0.00 0.38 0.38 75 1009.8
20260506163554 17 190 3.2 9.7 0.00 0.38 0.38 76 1009.9
20260506163112 16 159 4.8 9.7 0.00 0.38 0.38 78 1010.0
20260506162554 16 159 4.8 8.0 0.00 0.38 0.38 78 1010.2
20260506162055 16 165 3.2 8.0 0.00 0.38 0.38 79 1010.1
20260506161601 16 158 3.2 8.0 0.00 0.38 0.38 80 1010.1
20260506161058 16 236 3.2 8.0 0.03 0.38 0.38 80 1010.1
20260506160555 16 170 3.2 8.0 0.03 0.38 0.38 80 1010.2
20260506160120 16 141 3.2 6.4 0.03 0.38 0.38 81 1010.2
20260506155555 16 138 1.6 8.0 0.03 0.38 0.38 81 1010.2
20260506155056 16 138 1.6 8.0 0.05 0.38 0.38 81 1010.2
20260506154559 16 151 1.6 8.0 0.05 0.38 0.38 81 1010.4
20260506154055 16 154 3.2 8.0 0.08 0.38 0.38 81 1010.4
20260506153558 16 166 1.6 8.0 0.13 0.38 0.38 81 1010.3
20260506153058 16 150 1.6 8.0 0.15 0.38 0.38 81 1010.4
20260506152554 16 150 1.6 4.8 0.15 0.38 0.38 81 1010.5
20260506152056 16 150 1.6 4.8 0.15 0.38 0.38 81 1010.4
20260506151600 16 150 1.6 4.8 0.15 0.38 0.38 81 1010.3
20260506151054 16 150 1.6 4.8 0.13 0.36 0.36 79 1010.4
20260506150556 16 185 0.0 4.8 0.15 0.36 0.36 78 1010.7
20260506150103 16 184 1.6 4.8 0.15 0.36 0.36 78 1010.6
20260506145555 16 0 0.0 4.8 0.15 0.36 0.36 77 1010.7
20260506145054 16 142 1.6 4.8 0.18 0.33 0.33 76 1010.9
20260506144557 16 142 1.6 4.8 0.20 0.33 0.33 74 1011.0
20260506144054 16 142 1.6 4.8 0.18 0.30 0.30 74 1011.1
20260506143554 16 130 1.6 4.8 0.15 0.25 0.25 74 1011.1
20260506143054 16 128 1.6 4.8 0.13 0.23 0.23 74 1011.0
20260506142554 16 80 1.6 4.8 0.13 0.23 0.23 72 1010.9
20260506142054 16 80 1.6 4.8 0.15 0.23 0.23 72 1010.8
20260506141556 16 0 1.6 3.2 0.15 0.23 0.23 71 1010.9
20260506141055 16 80 1.6 3.2 0.18 0.23 0.23 69 1010.8
20260506140555 16 80 1.6 3.2 0.15 0.20 0.20 69 1010.8
20260506140056 16 80 0.0 3.2 0.18 0.20 0.20 68 1011.0
20260506135554 16 79 0.0 1.6 0.18 0.20 0.20 67 1010.9
20260506135054 16 0 0.0 1.6 0.13 0.15 0.15 66 1010.9
20260506134555 16 0 0.0 0.0 0.10 0.13 0.13 66 1011.0
20260506134054 16 0 0.0 0.0 0.10 0.13 0.13 66 1011.1
20260506133555 16 0 0.0 4.8 0.08 0.10 0.10 65 1011.1
20260506133108 16 0 0.0 4.8 0.08 0.10 0.10 65 1011.2
20260506132556 16 65 0.0 0.0 0.08 0.10 0.10 65 1011.2
20260506132056 16 0 0.0 0.0 0.05 0.08 0.08 64 1011.3
20260506131615 16 0 0.0 0.0 0.08 0.08 0.08 63 1011.3
20260506131054 16 0 0.0 0.0 0.05 0.05 0.05 63 1011.1
20260506130554 16 0 0.0 0.0 0.05 0.05 0.05 62 1011.1
20260506130054 17 0 0.0 0.0 0.03 0.03 0.03 62 1011.0
20260506125554 17 0 0.0 1.6 0.03 0.03 0.03 62 1011.1
20260506125056 17 0 0.0 1.6 0.03 0.03 0.03 62 1010.9
20260506124557 17 0 0.0 1.6 0.03 0.03 0.03 62 1010.8
20260506124054 17 0 0.0 1.6 0.03 0.03 0.03 62 1010.8
20260506123555 17 0 0.0 0.0 0.03 0.03 0.03 62 1010.6
20260506123055 17 0 0.0 4.8 0.03 0.03 0.03 61 1010.6
20260506122555 17 0 0.0 4.8 0.03 0.03 0.03 61 1010.6
20260506122054 17 146 0.0 3.2 0.03 0.03 0.03 60 1010.6
20260506121558 17 0 0.0 3.2 0.00 0.00 0.00 60 1010.4